#timestamp,LO_Frequency,Hit,StdDev 
1616389215.1,286047000.7,N
1616389216.0,286047000.7,N
1616389235.8,286047000.9,N
1616389255.6,286047001.0,N
1616389275.5,286047000.5,N
1616389295.3,286046999.8,N
1616389315.1,286047000.2,N
1616389335.9,286047001.0,N
1616389355.7,286047000.6,N
1616389375.6,286046998.3,N
1616389395.4,286046998.7,N
1616389415.2,286047000.1,N
1616389435.1,286046998.5,N
1616389436.0,286046998.5,N
1616389455.8,286046998.5,N
1616389475.6,286047000.7,N
1616389495.5,286046998.4,N
1616389515.3,286046998.7,N
1616389535.2,286046998.7,N
1616389555.9,286047000.8,N
1616389575.7,286046999.4,N
1616389595.6,286047000.7,N
1616389615.4,286047000.6,N
1616389635.2,286046998.7,N
1616389655.1,286046999.2,N
1616389656.0,286046999.2,N
1616389675.8,286046998.4,N
1616389695.7,286046999.0,N
1616389715.5,286046998.5,N
1616389735.3,286047000.8,N
1616389755.2,286047000.1,N
1616389775.0,286047000.4,N
1616389775.9,286047000.4,N
1616389795.7,286046999.9,N
1616389815.6,286047000.9,N
1616389835.4,286047000.2,N
1616389855.3,286046998.7,N
1616389875.1,286047001.0,N
1616389876.0,286047001.0,N
1616389895.8,286047000.8,N
1616389915.7,286047001.1,N
1616389935.5,286047000.4,N
1616389955.3,286047000.9,N
1616389975.2,286046998.2,N
1616389995.0,286046998.7,N
1616389995.9,286046998.7,N
1616390015.8,286046998.7,N
1616390035.6,286046998.3,N
1616390055.4,286047000.6,N
1616390075.3,286047000.2,N
1616390095.1,286047002.5,N
1616390115.8,286047002.8,N
1616390135.7,286047001.7,N
1616390155.5,286047001.3,N
1616390175.4,286047002.2,N
1616390195.2,286047003.9,Y
1616390215.0,286047001.9,P
1616390215.9,286047001.9,N
1616390235.8,286047005.9,P
1616390255.6,286047003.2,N
1616390275.4,286047002.1,N
1616390295.3,286047001.4,N
1616390315.1,286047005.8,Y
1616390335.9,286047002.7,P
1616390355.7,286047002.3,P
1616390375.5,286047001.5,P
1616390395.4,286047001.4,Y
1616390415.2,286046999.9,P
1616390435.0,286047000.0,N
1616390436.0,286047000.0,N
1616390455.8,286046999.7,N
1616390475.6,286046999.8,N
1616390495.5,286047000.8,N
1616390515.3,286046999.2,N
1616390535.1,286046996.5,Y
1616390555.9,286046998.6,P
1616390575.7,286047000.7,N
1616390595.5,286046999.9,N
1616390615.4,286047002.2,N
1616390635.2,286047005.5,Y
1616390655.1,286047004.1,P
1616390656.0,286047004.1,N
1616390675.8,286047004.3,N
1616390695.6,286047001.9,N
1616390715.5,286047004.1,N
1616390735.3,286047003.6,N
1616390755.2,286047002.1,N
1616390775.9,286047001.5,N
1616390795.7,286047001.7,N
1616390815.6,286047002.0,N
1616390835.4,286047002.5,N
1616390855.2,286047000.7,N
1616390875.1,286046998.6,N
1616390876.0,286046998.6,N
1616390895.8,286047000.5,N
1616390915.6,286047002.7,N
1616390935.5,286046999.9,N
1616390955.3,286047002.0,N
1616390975.2,286047002.2,N
1616390995.9,286047000.7,N
1616391015.7,286047000.7,N
1616391035.6,286047001.0,N
1616391055.4,286047000.9,N
1616391075.2,286047000.8,N
1616391095.1,286047001.2,N
1616391096.0,286047001.2,N
1616391115.8,286046998.7,N
1616391135.7,286046998.3,N
1616391155.5,286046998.7,N
1616391175.3,286046998.6,N
1616391195.2,286047002.6,N
1616391215.0,286047002.3,N
1616391215.9,286047002.3,N
1616391235.7,286047003.6,N
1616391255.6,286047002.9,N
1616391275.4,286047003.5,N
1616391295.3,286047003.5,N
1616391315.1,286047007.2,Y
1616391316.0,286047007.2,P
1616391335.8,286047004.8,N
1616391355.7,286047004.0,N
1616391375.5,286047001.5,N
1616391395.3,286047002.5,N
1616391415.2,286047002.8,N
1616391435.0,286046998.2,N
1616391435.9,286046998.2,N
1616391455.8,286046998.6,N
1616391475.6,286047001.1,N
1616391495.4,286047001.0,N
1616391515.3,286047000.5,N
1616391535.1,286047000.5,N
1616391555.8,286047000.9,N
1616391575.7,286047000.9,N
1616391595.5,286047001.0,N
1616391615.4,286047001.1,N
1616391635.2,286047000.0,N
1616391655.0,286047001.8,N
1616391655.9,286047001.8,N
1616391675.8,286047001.3,N
1616391695.6,286047002.9,N
1616391715.4,286047007.4,Y
1616391735.3,286047003.2,P
1616391755.1,286047001.8,N
1616391775.9,286047001.8,N
1616391795.7,286047002.7,Y
1616391815.5,286046998.3,P
1616391835.4,286047000.7,N
1616391855.2,286046999.9,N
1616391875.0,286047001.6,N
1616391875.9,286047001.6,N
1616391895.8,286047002.4,N
1616391915.6,286047001.6,N
1616391935.5,286047000.3,N
1616391955.3,286046998.2,N
1616391975.1,286046997.0,N
1616391995.9,286046995.4,N
1616392015.7,286046994.9,N
1616392035.5,286046997.9,N
1616392055.4,286046997.4,N
1616392075.2,286046995.4,N
1616392095.1,286046993.3,N
1616392096.0,286046993.3,N
1616392115.8,286046997.5,N
1616392135.6,286046997.8,N
1616392155.5,286046995.1,N
1616392175.3,286046995.0,N
1616392195.1,286046995.5,N
1616392215.9,286046995.5,N
1616392235.7,286046994.9,N
1616392255.6,286046996.4,N
1616392275.4,286046995.9,N
1616392295.2,286046996.2,N
1616392315.1,286046994.9,N
1616392316.0,286046994.9,N
1616392335.8,286046995.0,N
1616392355.6,286046995.2,N
1616392375.5,286046993.8,N
1616392395.3,286046993.7,N
1616392415.2,286046994.1,N
1616392435.9,286046994.1,N
1616392455.7,286046993.4,N
1616392475.6,286046997.5,N
1616392495.4,286046997.4,N
1616392515.2,286046995.0,Y
1616392535.1,286046998.3,P
1616392536.0,286046998.3,N
1616392555.8,286047000.8,N
1616392575.7,286046998.3,N
1616392595.5,286046999.4,N
1616392615.3,286046998.4,N
1616392635.2,286046998.3,N
1616392655.0,286046998.4,N
1616392655.9,286046998.4,N
1616392675.7,286046998.8,N
1616392695.6,286046996.7,N
1616392715.4,286046998.3,N
1616392735.3,286046999.6,N
1616392755.1,286046996.6,N
1616392756.0,286046996.6,N
1616392775.8,286046999.6,N
1616392795.7,286046996.5,N
